TimeCDT,TemperatureF,Dew PointF,Humidity,Sea Level PressureIn,VisibilityMPH,Wind Direction,Wind SpeedMPH,Gust SpeedMPH,PrecipitationIn,Events,Conditions,WindDirDegrees,DateUTC
12:53 AM,55.9,52.0,87,30.07,10.0,NNE,4.6,-,N/A,,Clear,20,2012-10-09 05:53:00
1:53 AM,55.9,52.0,87,30.07,10.0,NNE,3.5,-,N/A,,Mostly Cloudy,20,2012-10-09 06:53:00
2:53 AM,57.0,52.0,83,30.06,10.0,Calm,Calm,-,N/A,,Overcast,0,2012-10-09 07:53:00
3:53 AM,57.0,53.1,87,30.06,10.0,NNE,3.5,-,N/A,,Overcast,30,2012-10-09 08:53:00
4:11 AM,57.2,53.6,88,30.06,10.0,NNE,3.5,-,N/A,,Overcast,20,2012-10-09 09:11:00
4:53 AM,57.0,53.1,87,30.06,10.0,North,3.5,-,N/A,,Overcast,10,2012-10-09 09:53:00
5:30 AM,57.2,53.6,88,30.07,10.0,NNE,3.5,-,N/A,,Overcast,20,2012-10-09 10:30:00
5:53 AM,57.0,54.0,89,30.07,10.0,NNE,3.5,-,N/A,,Overcast,30,2012-10-09 10:53:00
6:16 AM,57.2,53.6,88,30.08,10.0,NNE,3.5,-,N/A,,Overcast,30,2012-10-09 11:16:00
6:53 AM,57.9,54.0,87,30.09,10.0,NNE,3.5,-,N/A,,Overcast,30,2012-10-09 11:53:00
7:53 AM,60.1,55.9,86,30.10,9.0,Calm,Calm,-,N/A,,Overcast,0,2012-10-09 12:53:00
8:53 AM,61.0,57.9,90,30.11,5.0,ENE,3.5,-,N/A,,Overcast,70,2012-10-09 13:53:00
9:53 AM,63.0,57.9,84,30.12,6.0,Calm,Calm,-,N/A,,Haze,0,2012-10-09 14:53:00
10:53 AM,66.0,59.0,78,30.12,9.0,North,3.5,-,N/A,,Overcast,10,2012-10-09 15:53:00
11:15 AM,66.2,59.0,78,30.12,10.0,Variable,4.6,-,N/A,,Overcast,0,2012-10-09 16:15:00
11:44 AM,69.8,60.8,73,30.11,10.0,Calm,Calm,-,N/A,,Overcast,0,2012-10-09 16:44:00
11:53 AM,68.0,59.0,73,30.10,10.0,East,3.5,-,N/A,,Mostly Cloudy,80,2012-10-09 16:53:00
12:53 PM,71.1,59.0,66,30.08,10.0,NNE,4.6,-,N/A,,Mostly Cloudy,20,2012-10-09 17:53:00
1:29 PM,73.4,57.2,57,30.06,10.0,Calm,Calm,-,N/A,,Scattered Clouds,0,2012-10-09 18:29:00
1:40 PM,73.4,59.0,61,30.06,10.0,North,5.8,-,N/A,,Mostly Cloudy,360,2012-10-09 18:40:00
1:53 PM,72.0,57.9,61,30.05,10.0,Calm,Calm,-,N/A,,Scattered Clouds,0,2012-10-09 18:53:00
2:53 PM,75.9,59.0,56,30.04,10.0,Calm,Calm,-,N/A,,Scattered Clouds,0,2012-10-09 19:53:00
3:53 PM,77.0,57.0,50,30.03,10.0,Variable,5.8,-,N/A,,Clear,0,2012-10-09 20:53:00
4:53 PM,75.9,55.9,50,30.03,10.0,WNW,4.6,-,N/A,,Clear,300,2012-10-09 21:53:00
5:22 PM,73.4,55.4,53,30.03,10.0,Calm,Calm,-,N/A,,Partly Cloudy,0,2012-10-09 22:22:00
5:53 PM,72.0,57.9,61,30.03,10.0,Calm,Calm,-,N/A,,Clear,0,2012-10-09 22:53:00
6:53 PM,68.0,61.0,78,30.04,10.0,Calm,Calm,-,N/A,,Clear,0,2012-10-09 23:53:00
7:53 PM,66.0,60.1,81,30.05,9.0,Calm,Calm,-,N/A,,Clear,0,2012-10-10 00:53:00
8:53 PM,62.1,59.0,90,30.06,6.0,Calm,Calm,-,N/A,,Clear,0,2012-10-10 01:53:00
9:53 PM,60.1,57.9,93,30.08,4.0,Calm,Calm,-,N/A,,Clear,0,2012-10-10 02:53:00
10:53 PM,57.9,55.9,93,30.09,3.0,Calm,Calm,-,N/A,,Clear,0,2012-10-10 03:53:00
11:53 PM,57.0,55.0,93,30.08,5.0,Calm,Calm,-,N/A,,Clear,0,2012-10-10 04:53:00